This demonstration page uses our WeatherBlox Daily Observations layout. Learn more.

Left ArrowRight Arrow

34.74481, -87.66753

Hourly Observations for December 6, 2022

Temp ( °F °C ) Dew Point ( °F °C ) Humidity (%) Winds ( mph kmh ) Pressure ( in mb ) Visibility ( mi km ) Precip ( " mm )
12:53 am 00:53 Cloudy 65 18.3 63 17.2 93 93 SSW 9 15 29.93 1013 7 11 0.00 0.00
2:53 am 02:53 Cloudy 68 20 64 17.8 87 87 SSW 13 20 29.93 1014 10 16 0.00 0.00
3:06 am 03:06 Cloudy 67 19.4 64 17.8 90 90 SSW 12 19 29.94 1014 10 16 0.00 0.00
3:53 am 03:53 Cloudy 68 20 64 17.8 87 87 SW 12 19 29.94 1014 10 16 0.00 0.00
4:53 am 04:53 Cloudy 69 20.6 64 17.8 84 84 SW 13 20 29.94 1014 10 16 0.00 0.00
5:53 am 05:53 Cloudy 69 20.6 65 18.3 87 87 SW 14 22 29.96 1014 10 16 0.00 0.00
6:53 am 06:53 Cloudy 69 20.6 65 18.3 87 87 SW 12 19 29.98 1015 10 16 0.00 0.00
7:53 am 07:53 Cloudy 69 20.6 65 18.3 87 87 SSW 13 20 30.00 1016 10 16 0.00 0.00
8:53 am 08:53 Cloudy 70 21.1 65 18.3 84 84 SSW 10 17 30.02 1017 10 16 0.00 0.00
9:53 am 09:53 Cloudy 70 21.1 65 18.3 84 84 SW 12 19 30.04 1017 10 16 0.00 0.00
10:53 am 10:53 Cloudy 71 21.7 66 18.9 84 84 SW 12 19 30.03 1017 10 16 0.00 0.00
11:53 am 11:53 Cloudy 71 21.7 66 18.9 84 84 SW 12 19 30.01 1016 10 16 0.01 0.13
12:53 pm 12:53 Mostly Cloudy 73 22.8 66 18.9 79 79 SW 14 22 30.00 1016 10 16 0.00 0.00
1:15 pm 13:15 Mostly Cloudy 73 22.8 65 18.3 76 76 SSW 13 20 29.99 1016 10 16 0.00 0.00
1:23 pm 13:23 Partly Cloudy 74 23.3 65 18.3 74 74 SSW 13 20 29.99 1016 10 16 0.00 0.00
1:53 pm 13:53 Mostly Cloudy 73 22.8 64 17.8 73 73 SSW 12 19 30.00 1016 10 16 0.00 0.00
2:07 pm 14:07 Cloudy 74 23.3 64 17.8 71 71 SSW 13 20 29.99 1016 10 16 0.00 0.00
2:53 pm 14:53 Mostly Cloudy 74 23.3 65 18.3 74 74 SSW 9 15 30.00 1016 10 16 0.00 0.00
3:53 pm 15:53 Mostly Sunny 73 22.8 64 17.8 73 73 S 9 15 30.01 1016 10 16 0.00 0.00
4:53 pm 16:53 Mostly Clear 72 22.2 63 17.2 73 73 S 9 15 30.02 1017 10 16 0.00 0.00
5:53 pm 17:53 Mostly Cloudy 71 21.7 64 17.8 79 79 S 6 9 30.04 1017 10 16 0.00 0.00
6:53 pm 18:53 Mostly Clear 69 20.6 65 18.3 87 87 S 6 9 30.06 1018 10 16 0.00 0.00
7:53 pm 19:53 Cloudy 70 21.1 65 18.3 84 84 S 7 11 30.08 1019 10 16 0.00 0.00
8:53 pm 20:53 Cloudy 70 21.1 65 18.3 84 84 S 8 13 30.09 1019 10 16 0.00 0.00
9:53 pm 21:53 Cloudy 70 21.1 65 18.3 84 84 S 7 11 30.10 1019 10 16 0.00 0.00
10:53 pm 22:53 Cloudy 68 20 65 18.3 90 90 SSE 5 7 30.10 1019 10 16 0.01 0.25
11:53 pm 23:53 Cloudy 67 19.4 65 18.3 93 93 SSE 8 13 30.09 1019 10 16 0.02 0.51

Powered by AerisWeather